W7YP Weather Reports


Display with metric or nautical units.
time (UTC)temp
F
wind
direction
speed
MPH
gust
MPH
rain 1hr
in
rain 24hr
in
rain mn
in
humidity
%
barometer
mb
20260902115219 53 300 0.0 0.0 0.00 0.00 0.00 85 1009.7
20260902114705 53 300 0.0 0.0 0.00 0.00 0.00 85 1009.7
20260902114159 54 300 0.0 0.0 0.00 0.00 0.00 85 1009.7
20260902113655 54 300 0.0 0.0 0.00 0.00 0.00 84 1009.8
20260902113155 54 300 0.0 0.0 0.00 0.00 0.00 84 1009.8
20260902112908 54 300 0.0 0.0 0.00 0.00 0.00 84 1009.9
20260902112145 54 300 0.0 0.0 0.00 0.00 0.00 84 1010.0
20260902111643 54 300 0.0 0.0 0.00 0.00 0.00 83 1010.1
20260902111400 54 300 0.0 0.0 0.00 0.00 0.00 83 1010.1
20260902110625 55 300 0.0 0.0 0.00 0.00 0.00 83 1010.1
20260902110121 55 300 0.0 0.0 0.00 0.00 0.00 83 1010.1
20260902105838 55 300 0.0 0.0 0.00 0.00 0.00 83 1010.2
20260902105124 55 300 0.0 0.0 0.00 0.00 0.00 83 1010.2
20260902104621 55 300 0.0 0.0 0.00 0.00 0.00 82 1010.3
20260902104116 56 300 0.0 0.0 0.00 0.00 0.00 82 1010.3
20260902103620 56 300 0.0 0.0 0.00 0.00 0.00 82 1010.5
20260902103059 56 300 0.0 0.0 0.00 0.00 0.00 82 1010.5
20260902102557 56 300 0.0 0.0 0.00 0.00 0.00 82 1010.5
20260902102057 56 300 0.0 0.0 0.00 0.00 0.00 82 1010.3
20260902101557 56 300 0.0 0.0 0.00 0.00 0.00 82 1010.3
20260902101317 56 300 0.0 0.0 0.00 0.00 0.00 83 1010.5
20260902100553 56 300 0.0 0.0 0.00 0.00 0.00 83 1010.6
20260902100055 56 300 0.0 0.0 0.00 0.00 0.00 84 1010.6
20260902095552 56 300 0.0 0.0 0.00 0.00 0.00 84 1010.6
20260902095053 57 300 0.0 0.0 0.00 0.00 0.00 84 1010.7
20260902094811 57 300 0.0 0.0 0.00 0.00 0.00 83 1010.7
20260902094043 57 300 0.0 0.0 0.00 0.00 0.00 84 1010.7
20260902093536 57 300 0.0 1.0 0.00 0.00 0.00 84 1010.8
20260902093255 56 300 0.0 1.0 0.00 0.00 0.00 83 1010.8
20260902092519 57 300 0.0 0.0 0.00 0.00 0.00 83 1010.6
20260902092023 57 300 0.0 0.0 0.00 0.00 0.00 83 1010.5
20260902091519 57 300 0.0 0.0 0.00 0.00 0.00 84 1010.7
20260902091027 57 300 0.0 0.0 0.00 0.00 0.00 84 1010.7
20260902090520 57 300 0.0 0.0 0.00 0.00 0.00 83 1010.9
20260902090031 57 300 0.0 0.0 0.00 0.00 0.00 83 1011.0
20260902085510 57 300 0.0 0.0 0.00 0.00 0.00 83 1011.0
20260902085017 57 300 0.0 0.0 0.00 0.00 0.00 85 1010.9
20260902084510 57 300 0.0 0.0 0.00 0.00 0.00 85 1011.0
20260902084239 57 300 0.0 2.0 0.00 0.00 0.00 86 1011.0
20260902083501 57 300 0.0 2.0 0.00 0.00 0.00 85 1010.9
20260902083002 57 300 0.0 0.0 0.00 0.00 0.00 84 1011.0
20260902082500 57 300 0.0 0.0 0.00 0.00 0.00 83 1010.9
20260902081957 57 300 0.0 0.0 0.00 0.00 0.00 84 1010.9
20260902081450 57 300 0.0 0.0 0.00 0.00 0.00 83 1010.9
20260902080952 57 300 0.0 0.0 0.00 0.00 0.00 84 1010.9
20260902080451 58 300 0.0 0.0 0.00 0.00 0.00 84 1010.7
20260902080216 58 300 0.0 0.0 0.00 0.00 0.00 84 1010.9
20260902075453 58 300 0.0 0.0 0.00 0.00 0.00 83 1010.9
20260902074951 58 300 0.0 0.0 0.00 0.00 0.00 83 1011.1
20260902074446 58 300 0.0 0.0 0.00 0.00 0.00 83 1011.1
20260902074208 58 300 0.0 0.0 0.00 0.00 0.00 83 1011.1
20260902073448 58 300 0.0 0.0 0.00 0.00 0.00 83 1011.2
20260902072947 58 300 0.0 0.0 0.00 0.00 0.00 82 1011.2
20260902072706 58 300 0.0 0.0 0.00 0.00 0.00 83 1011.1
20260902071934 58 300 0.0 0.0 0.00 0.00 0.00 82 1011.2
20260902071427 58 300 0.0 0.0 0.00 0.00 0.00 82 1011.2
20260902070930 58 300 0.0 0.0 0.00 0.00 0.00 80 1011.4
20260902070911 58 300 0.0 0.0 0.00 0.00 0.00 80 1011.4
20260902065929 59 300 0.0 0.0 0.00 0.00 0.00 78 1011.2
20260902065654 59 300 0.0 0.0 0.00 0.00 0.00 76 1011.4
20260902065154 59 300 0.0 0.0 0.00 0.00 0.00 75 1011.4
20260902064635 59 300 0.0 0.0 0.00 0.00 0.00 76 1011.2
20260902063920 60 300 0.0 0.0 0.00 0.00 0.00 75 1011.4
20260902063422 60 300 0.0 0.0 0.00 0.00 0.00 76 1011.4
20260902063138 60 300 0.0 0.0 0.00 0.00 0.00 76 1011.4
20260902062419 60 300 0.0 0.0 0.00 0.00 0.00 75 1011.5
20260902061921 61 300 0.0 0.0 0.00 0.00 0.00 73 1011.4
20260902061414 61 300 0.0 0.0 0.00 0.00 0.00 76 1011.4
20260902060915 61 300 0.0 0.0 0.00 0.00 0.00 73 1011.5
20260902060410 62 300 0.0 0.0 0.00 0.00 0.00 72 1011.5
20260902060352 62 300 0.0 0.0 0.00 0.00 0.00 72 1011.6
20260902055845 62 300 0.0 0.0 0.00 0.00 0.00 71 1011.6
20260902054856 63 300 0.0 0.0 0.00 0.00 0.00 69 1011.6
20260902054350 63 300 0.0 1.0 0.00 0.00 0.00 68 1011.6
20260902053848 64 300 0.0 1.0 0.00 0.00 0.00 66 1011.6
20260902053348 64 300 0.0 0.0 0.00 0.00 0.00 64 1011.6
20260902052848 65 300 0.0 0.0 0.00 0.00 0.00 62 1011.7
20260902052341 65 300 0.0 0.0 0.00 0.00 0.00 61 1011.7
20260902052057 66 300 0.0 1.0 0.00 0.00 0.00 61 1011.7
20260902051337 66 300 0.0 1.0 0.00 0.00 0.00 60 1011.8
20260902051100 67 227 0.0 1.0 0.00 0.00 0.00 56 1011.8
20260902050336 67 227 0.0 2.0 0.00 0.00 0.00 55 1011.7
20260902045840 67 225 0.0 7.0 0.00 0.00 0.00 55 1011.8
20260902045322 67 218 0.0 7.0 0.00 0.00 0.00 54 1011.8
20260902044825 68 169 0.0 4.0 0.00 0.00 0.00 59 1011.7
20260902044548 68 159 0.0 8.0 0.00 0.00 0.00 51 1011.7
20260902043821 68 122 0.0 8.0 0.00 0.00 0.00 53 1011.8
20260902043318 69 76 0.0 0.0 0.00 0.00 0.00 52 1011.8
20260902042820 69 76 0.0 1.0 0.00 0.00 0.00 52 1011.8
20260902042319 69 76 0.0 6.0 0.00 0.00 0.00 49 1011.7
20260902041817 69 40 0.0 10.0 0.00 0.00 0.00 52 1011.7
20260902041308 70 320 0.0 10.0 0.00 0.00 0.00 48 1011.6
20260902040806 70 164 0.0 6.0 0.00 0.00 0.00 47 1011.7
20260902040304 70 313 1.0 6.0 0.00 0.00 0.00 47 1011.7
20260902035806 70 338 0.0 14.0 0.00 0.00 0.00 47 1011.7
20260902035520 70 209 1.0 14.0 0.00 0.00 0.00 45 1011.7
20260902034802 70 22 1.0 12.0 0.00 0.00 0.00 46 1011.7
20260902034254 70 323 4.0 12.0 0.00 0.00 0.00 45 1011.6
20260902033756 70 178 4.0 12.0 0.00 0.00 0.00 45 1011.6
20260902033255 70 261 2.0 12.0 0.00 0.00 0.00 46 1011.7
20260902032757 70 5 2.0 7.0 0.00 0.00 0.00 47 1011.5
20260902032255 70 304 0.0 9.0 0.00 0.00 0.00 47 1011.4
20260902031757 70 333 1.0 12.0 0.00 0.00 0.00 46 1011.2
20260902031735 70 130 2.0 12.0 0.00 0.00 0.00 46 1011.1
20260902031015 69 33 2.0 12.0 0.00 0.00 0.00 46 1010.9
20260902030241 69 34 1.0 10.0 0.00 0.00 0.00 48 1010.9
20260902025742 69 283 1.0 10.0 0.00 0.00 0.00 51 1010.8
20260902025243 69 222 1.0 12.0 0.00 0.00 0.00 52 1010.6
20260902024743 68 207 0.0 12.0 0.00 0.00 0.00 51 1010.6
20260902024241 67 121 1.0 9.0 0.00 0.00 0.00 51 1010.5
20260902023738 66 296 1.0 9.0 0.00 0.00 0.00 55 1010.3
20260902023231 65 329 0.0 8.0 0.00 0.00 0.00 58 1010.3
20260902022733 64 28 2.0 11.0 0.00 0.00 0.00 60 1010.1
20260902022227 63 317 1.0 13.0 0.00 0.00 0.00 65 1009.9
20260902021952 62 318 2.0 13.0 0.00 0.00 0.00 65 1009.8
20260902021227 62 345 0.0 4.0 0.00 0.00 0.00 79 1009.7
20260902020729 62 127 0.0 2.0 0.00 0.00 0.00 80 1009.2
20260902020228 62 127 0.0 2.0 0.00 0.00 0.00 78 1009.2
20260902015722 62 127 0.0 2.0 0.00 0.00 0.00 77 1009.2
20260902015218 63 126 0.0 0.0 0.00 0.00 0.00 77 1009.2
20260902014719 63 126 0.0 0.0 0.00 0.00 0.00 75 1009.3
20260902014215 64 126 0.0 0.0 0.00 0.00 0.00 75 1009.2
20260902013920 64 126 0.0 0.0 0.00 0.00 0.00 73 1009.3
20260902013818 64 126 0.0 0.0 0.00 0.00 0.00 74 1009.3
20260902012717 65 126 0.0 0.0 0.00 0.00 0.00 72 1009.2
20260902012214 65 126 0.0 0.0 0.00 0.00 0.00 70 1009.3
20260902011710 66 126 0.0 0.0 0.00 0.00 0.00 68 1009.3
20260902011423 67 126 0.0 0.0 0.00 0.00 0.00 67 1009.3
20260902010931 68 126 0.0 0.0 0.00 0.00 0.00 67 1009.2
20260902010202 69 126 0.0 0.0 0.00 0.00 0.00 67 1009.2
20260902005931 69 126 0.0 0.0 0.00 0.00 0.00 65 1009.2
20260902005154 70 126 0.0 0.0 0.00 0.00 0.00 63 1009.3
20260902004655 71 126 0.0 0.0 0.00 0.00 0.00 62 1009.2
20260902004354 72 126 0.0 0.0 0.00 0.00 0.00 64 1009.3
20260902003624 73 126 0.0 0.0 0.00 0.00 0.00 63 1009.2
20260902003124 73 126 0.0 0.0 0.00 0.00 0.00 61 1009.2
20260902002627 74 126 0.0 0.0 0.00 0.00 0.00 60 1009.2
20260902002342 74 126 0.0 0.0 0.00 0.00 0.00 59 1009.3
20260902001610 75 126 0.0 0.0 0.00 0.00 0.00 60 1009.5
20260902001109 75 126 0.0 0.0 0.00 0.00 0.00 62 1009.5
20260902000610 75 126 0.0 0.0 0.00 0.00 0.00 62 1009.6
20260902000110 76 126 0.0 0.0 0.00 0.00 0.00 63 1009.7
20260901235610 76 126 0.0 0.0 0.00 0.00 0.00 66 1009.7
20260901235327 76 126 0.0 0.0 0.00 0.00 0.00 65 1009.7
20260901234821 76 126 0.0 0.0 0.00 0.00 0.00 63 1009.8
20260901234050 76 126 0.0 0.0 0.00 0.00 0.00 61 1009.9
20260901233541 77 126 0.0 0.0 0.00 0.00 0.00 62 1009.7
20260901233040 77 126 0.0 1.0 0.00 0.00 0.00 62 1009.7
20260901232801 77 126 0.0 1.0 0.00 0.00 0.00 60 1009.8
20260901232042 77 126 0.0 0.0 0.00 0.00 0.00 46 1009.8
20260901231541 77 126 0.0 0.0 0.00 0.00 0.00 62 1009.9
20260901231036 77 126 0.0 0.0 0.00 0.00 0.00 62 1009.8
20260901230534 77 126 0.0 0.0 0.00 0.00 0.00 64 1009.9
20260901230032 77 126 0.0 0.0 0.00 0.00 0.00 60 1009.9
20260901225531 77 126 0.0 0.0 0.00 0.00 0.00 62 1010.0
20260901225022 77 126 0.0 0.0 0.00 0.00 0.00 61 1010.1
20260901224745 78 126 0.0 0.0 0.00 0.00 0.00 60 1010.1
20260901224012 78 126 0.0 0.0 0.00 0.00 0.00 62 1010.2
20260901223513 79 126 0.0 0.0 0.00 0.00 0.00 60 1010.3
20260901223013 79 126 0.0 0.0 0.00 0.00 0.00 58 1010.3
20260901222513 79 126 0.0 0.0 0.00 0.00 0.00 58 1010.3
20260901222014 80 126 0.0 0.0 0.00 0.00 0.00 52 1010.3
20260901221513 80 126 0.0 0.0 0.00 0.00 0.00 49 1010.5
20260901221233 80 126 0.0 0.0 0.00 0.00 0.00 50 1010.5
20260901220509 80 126 0.0 0.0 0.00 0.00 0.00 49 1010.6
20260901220009 80 126 0.0 0.0 0.00 0.00 0.00 52 1010.6
20260901215509 80 126 0.0 0.0 0.00 0.00 0.00 46 1010.6
20260901215004 80 126 0.0 0.0 0.00 0.00 0.00 44 1010.7
20260901214733 80 126 0.0 1.0 0.00 0.00 0.00 41 1010.8
20260901214002 80 126 0.0 1.0 0.00 0.00 0.00 35 1010.8
20260901213500 80 126 0.0 0.0 0.00 0.00 0.00 42 1010.9
20260901213000 80 126 0.0 0.0 0.00 0.00 0.00 40 1011.0
20260901212500 80 126 0.0 4.0 0.00 0.00 0.00 40 1011.0
20260901212000 80 126 1.0 4.0 0.00 0.00 0.00 41 1011.1
20260901211712 79 167 0.0 0.0 0.00 0.00 0.00 41 1011.2
20260901210946 79 167 0.0 1.0 0.00 0.00 0.00 42 1011.2
20260901210703 79 167 0.0 1.0 0.00 0.00 0.00 42 1011.4
20260901205946 78 167 0.0 1.0 0.00 0.00 0.00 46 1011.5
20260901205445 78 167 0.0 1.0 0.00 0.00 0.00 42 1011.5
20260901204946 78 167 0.0 4.0 0.00 0.00 0.00 43 1011.6
20260901204444 78 167 1.0 4.0 0.00 0.00 0.00 43 1011.7
20260901203934 77 141 0.0 1.0 0.00 0.00 0.00 42 1011.7
20260901203424 77 165 0.0 4.0 0.00 0.00 0.00 45 1011.8
20260901202919 77 165 0.0 4.0 0.00 0.00 0.00 46 1011.8
20260901202417 76 272 0.0 1.0 0.00 0.00 0.00 44 1011.9
20260901201917 76 275 0.0 0.0 0.00 0.00 0.00 46 1011.9
20260901201417 75 275 0.0 1.0 0.00 0.00 0.00 49 1012.0
20260901200917 75 275 0.0 3.0 0.00 0.00 0.00 50 1012.0
20260901200417 75 275 1.0 3.0 0.00 0.00 0.00 49 1012.1
20260901195913 74 142 0.0 3.0 0.00 0.00 0.00 51 1012.2
20260901195413 74 142 0.0 3.0 0.00 0.00 0.00 48 1012.4
20260901194907 74 142 0.0 1.0 0.00 0.00 0.00 48 1012.4
20260901194408 74 142 0.0 2.0 0.00 0.00 0.00 49 1012.5
20260901194131 73 143 0.0 2.0 0.00 0.00 0.00 48 1012.5
20260901193405 73 143 0.0 1.0 0.00 0.00 0.00 49 1012.6
20260901193122 73 142 0.0 1.0 0.00 0.00 0.00 48 1012.6
20260901192403 72 143 0.0 3.0 0.00 0.00 0.00 51 1012.8
20260901191859 72 143 1.0 3.0 0.00 0.00 0.00 49 1012.9
20260901191343 72 144 0.0 2.0 0.00 0.00 0.00 51 1012.9
20260901190838 71 142 0.0 3.0 0.00 0.00 0.00 53 1013.0
20260901190333 71 142 0.0 3.0 0.00 0.00 0.00 50 1013.1
20260901185833 71 125 0.0 1.0 0.00 0.00 0.00 52 1013.4
20260901185551 70 125 0.0 1.0 0.00 0.00 0.00 52 1013.5
20260901184829 70 125 0.0 4.0 0.00 0.00 0.00 53 1013.5
20260901184325 69 125 0.0 4.0 0.00 0.00 0.00 53 1013.6
20260901183824 69 123 0.0 1.0 0.00 0.00 0.00 56 1013.7
20260901183325 69 124 0.0 1.0 0.00 0.00 0.00 53 1013.8
20260901182819 68 124 0.0 1.0 0.00 0.00 0.00 54 1013.8
20260901182305 68 124 0.0 3.0 0.00 0.00 0.00 55 1013.9
20260901181805 67 124 0.0 3.0 0.00 0.00 0.00 55 1014.0
20260901181305 67 126 0.0 2.0 0.00 0.00 0.00 55 1014.1
20260901180803 67 129 0.0 2.0 0.00 0.00 0.00 57 1014.1
20260901180527 66 111 0.0 2.0 0.00 0.00 0.00 58 1014.3
20260901175756 66 110 0.0 3.0 0.00 0.00 0.00 57 1014.4
20260901175256 65 111 1.0 3.0 0.00 0.00 0.00 58 1014.4
20260901174756 65 111 0.0 2.0 0.00 0.00 0.00 60 1014.4
20260901174256 64 105 0.0 0.0 0.00 0.00 0.00 63 1014.5
20260901173757 64 105 0.0 1.0 0.00 0.00 0.00 60 1014.5
20260901173252 63 105 0.0 1.0 0.00 0.00 0.00 60 1014.5
20260901173247 63 102 0.0 3.0 0.00 0.00 0.00 62 1014.6
20260901172254 62 102 1.0 3.0 0.00 0.00 0.00 60 1014.7
20260901172009 62 145 0.0 2.0 0.00 0.00 0.00 64 1014.6
20260901171252 62 144 0.0 2.0 0.00 0.00 0.00 64 1014.7
20260901170747 61 157 0.0 3.0 0.00 0.00 0.00 63 1014.7
20260901170509 61 109 0.0 3.0 0.00 0.00 0.00 66 1014.8
20260901165742 60 109 1.0 3.0 0.00 0.00 0.00 64 1014.8
20260901165237 60 108 0.0 2.0 0.00 0.00 0.00 68 1014.9
20260901164739 59 106 0.0 1.0 0.00 0.00 0.00 68 1014.8
20260901164239 59 106 0.0 2.0 0.00 0.00 0.00 74 1014.8
20260901163738 58 106 0.0 2.0 0.00 0.00 0.00 72 1014.8
20260901163239 58 89 0.0 2.0 0.00 0.00 0.00 74 1014.9
20260901162736 58 88 0.0 2.0 0.00 0.00 0.00 78 1014.9
20260901162229 57 82 0.0 3.0 0.00 0.00 0.00 78 1014.9
20260901161952 56 78 0.0 3.0 0.00 0.00 0.00 78 1015.0
20260901161224 55 76 0.0 3.0 0.00 0.00 0.00 81 1015.1
20260901160724 55 76 0.0 3.0 0.00 0.00 0.00 81 1015.3
20260901160227 54 60 0.0 0.0 0.00 0.00 0.00 84 1015.3
20260901155949 53 60 0.0 2.0 0.00 0.00 0.00 87 1015.4
20260901155212 52 60 0.0 2.0 0.00 0.00 0.00 87 1015.4
20260901154700 52 59 0.0 0.0 0.00 0.00 0.00 89 1015.5
20260901154159 51 59 0.0 0.0 0.00 0.00 0.00 91 1015.5
20260901154136 51 59 0.0 1.0 0.00 0.00 0.00 93 1015.5
20260901153200 50 59 0.0 1.0 0.00 0.00 0.00 95 1015.6
20260901152700 49 59 0.0 2.0 0.00 0.00 0.00 97 1015.6
20260901152155 49 59 0.0 2.0 0.00 0.00 0.00 97 1015.6
20260901151915 49 26 0.0 2.0 0.00 0.00 0.00 97 1015.6
20260901151146 48 26 0.0 1.0 0.00 0.00 0.00 97 1015.6
20260901150641 48 26 0.0 0.0 0.00 0.00 0.00 97 1015.6
20260901150141 47 26 0.0 1.0 0.00 0.00 0.00 97 1015.6
20260901145641 47 26 0.0 1.0 0.00 0.00 0.00 97 1015.7
20260901145141 46 25 0.0 0.0 0.00 0.00 0.00 97 1015.7
20260901144639 46 25 0.0 0.0 0.00 0.00 0.00 97 1015.7
20260901144131 46 25 0.0 0.0 0.00 0.00 0.00 97 1015.7
20260901143632 46 25 0.0 0.0 0.00 0.00 0.00 97 1015.7
20260901143134 45 25 0.0 0.0 0.00 0.00 0.00 97 1015.7
20260901142622 45 25 0.0 0.0 0.00 0.00 0.00 97 1015.6
20260901142340 45 25 0.0 0.0 0.00 0.00 0.00 97 1015.7
20260901141612 45 25 0.0 0.0 0.00 0.00 0.00 96 1015.5
20260901141113 44 25 0.0 0.0 0.00 0.00 0.00 96 1015.6
20260901140608 44 25 0.0 0.0 0.00 0.00 0.00 96 1015.6
20260901140325 44 25 0.0 0.0 0.00 0.00 0.00 96 1015.6
20260901135828 44 25 0.0 0.0 0.00 0.00 0.00 96 1015.6
20260901135058 44 25 0.0 0.0 0.00 0.00 0.00 96 1015.6
20260901134554 44 25 0.0 0.0 0.00 0.00 0.00 96 1015.6
20260901134053 44 25 0.0 0.0 0.00 0.00 0.00 96 1015.6
20260901133554 44 25 0.0 0.0 0.00 0.00 0.00 96 1015.6
20260901133049 44 25 0.0 0.0 0.00 0.00 0.00 96 1015.4
20260901132548 44 25 0.0 0.0 0.00 0.00 0.00 96 1015.5
20260901132048 44 25 0.0 0.0 0.00 0.00 0.00 96 1015.4
20260901131549 44 25 0.0 0.0 0.00 0.00 0.00 96 1015.3
20260901131045 44 25 0.0 0.0 0.00 0.00 0.00 96 1015.4
20260901130539 44 25 0.0 0.0 0.00 0.00 0.00 96 1015.4
20260901130258 44 25 0.0 0.0 0.00 0.00 0.00 96 1015.3
20260901125800 44 25 0.0 0.0 0.00 0.00 0.00 96 1015.3
20260901125035 44 25 0.0 0.0 0.00 0.00 0.00 96 1015.3
20260901124530 44 25 0.0 0.0 0.00 0.00 0.00 96 1015.3
20260901124249 44 25 0.0 0.0 0.00 0.00 0.00 96 1015.3
20260901123520 44 25 0.0 0.0 0.00 0.00 0.00 96 1015.3
20260901123010 44 25 0.0 0.0 0.00 0.00 0.00 96 1015.3
20260901122505 44 25 0.0 0.0 0.00 0.00 0.00 95 1015.3
20260901122001 44 25 0.0 0.0 0.00 0.00 0.00 95 1015.3
20260901121716 44 25 0.0 0.0 0.00 0.00 0.00 95 1015.3
20260901120956 44 25 0.0 0.0 0.00 0.00 0.00 95 1015.4
20260901120451 44 25 0.0 0.0 0.00 0.00 0.00 96 1015.3
20260901115946 44 25 0.0 0.0 0.00 0.00 0.00 96 1015.4
20260901115702 44 25 0.0 0.0 0.00 0.00 0.00 96 1015.3